Flag for South Africa Weather past 2 weeks in Rustenburg, South Africa

Now
59 °F

Refreshingly cool.


Feels Like: 59 °F
Forecast: 61 / 85 °F
Wind: 5 mph from Southeast

Location: Lanseria Civ / Mil

Current Time: Aug 31, 2015 at 4:41:02 AM

Latest Report: Aug 31, 2015 at 4:00 AM


Visibility: N/A

Pressure: 30.21 "Hg (26.31 "Hg at 1166m altitude)

Humidity: 51%

Dew point: 41 °F

Location of RustenburgLocation

Historic Weather in Rustenburg — Graph

°F

Rustenburg temperature yesterday

Maximum temperature yesterday: 84 °F (at 3:00 PM)
Minimum temperature yesterday: 57 °F (at 7:00 AM)
Average temperature yesterday: 71 °F

Past Weeks' High & Low Weather Summary

 TemperatureHumidityPressure
High84 °F (Aug 22, 2:00 PM)100% (Aug 24, 5:00 AM)30.48 "Hg (Aug 24, 5:00 AM)
Low46 °F (Aug 19, 7:00 AM)10% (Aug 25, 4:00 PM)30.09 "Hg (Aug 19, 3:00 PM)
Average66 °F39%30.29 "Hg
* Reported Aug 16 3:00 AM — Aug 31 3:00 AM, Rustenburg, Weather by CustomWeather, © 2015

Note: Actual official high and low records may vary slightly from our data, if they occured in-between our weather recording intervals... More about our weather records

Advertising

Rustenburg weather history for previous 24 hours

 ConditionsComfort  
Time TempWeatherWind HumidityBarometerVisibility
3:00 AM
Mon, Aug 31
63 °FMild.6 mph45%30.21 "HgN/A
2:00 AM64 °FMild.3 mph40%30.24 "HgN/A
1:00 AM66 °FMild.No wind35%30.24 "HgN/A
12:00 AM68 °FMild.6 mph33%30.24 "HgN/A
11:00 PM
Sun, Aug 30
68 °FMild.2 mph35%30.24 "HgN/A
10:00 PM70 °FClear.No wind33%30.24 "Hg10 mi
9:00 PM72 °FPassing clouds.5 mph31%30.24 "HgN/A
8:00 PM73 °FPassing clouds.3 mph27%30.21 "HgN/A
7:00 PM77 °FClear.3 mph24%30.21 "Hg10 mi
6:00 PM79 °FClear.3 mph23%30.18 "Hg10 mi
5:00 PM82 °FClear.10 mph19%30.18 "Hg10 mi
4:00 PM82 °FSunny.14 mph19%30.18 "Hg10 mi
3:00 PM84 °FPassing clouds.13 mph18%30.18 "HgN/A
2:00 PM82 °FPassing clouds.13 mph20%30.21 "HgN/A
1:00 PM82 °FSunny.16 mph21%30.24 "Hg10 mi
12:00 PM81 °FPassing clouds.13 mph24%30.30 "HgN/A
11:00 AM79 °FPassing clouds.8 mph30%30.30 "HgN/A
10:00 AM73 °FPassing clouds.7 mph36%30.33 "HgN/A
9:00 AM70 °FSunny.3 mph40%30.36 "Hg10 mi
8:00 AM63 °FSunny.No wind52%30.33 "Hg10 mi
7:00 AM57 °FSunny.No wind59%30.30 "Hg10 mi
6:00 AM61 °FSunny.6 mph52%30.30 "Hg10 mi
5:00 AM63 °FMild.5 mph49%30.27 "HgN/A
4:00 AM63 °FMild.3 mph45%30.27 "HgN/A
Weather by CustomWeather, © 2015

See weather overviewHow to use our weather pages